Regional Weather Roundup
Issued by NWS Upton, NY

Home | Current Version | Previous Version | Text Only | Print | Product List | Glossary On
Versions: 1 2 3 4 5 6 7 8 9 10 11 12 13 14 15 16 17 18 19 20 21 22 23 24 25 26 27 28 29 30 31 32 33 34 35 36 37 38 39 40 41 42 43 44 45 46 47 48 49 50
163
ASUS41 KOKX 222008
RWROKX

REGIONAL WEATHER ROUNDUP
NATIONAL WEATHER SERVICE NEW YORK NY
300 PM EST SUN JAN 22 2017

NOTE: "FAIR" INDICATES FEW OR NO CLOUDS BELOW 12,000 FEET WITH NO
SIGNIFICANT WEATHER AND/OR OBSTRUCTIONS TO VISIBILITY.

NYZ071-072-176-178-NJZ106-104-222100-
NEW YORK CITY METRO AREA

CITY           SKY/WX    TMP DP  RH WIND       PRES   REMARKS
Central Park   CLOUDY    46  42  86 E12G17    29.71S
Wall St Helipt   N/A     47  42  83 NE14      29.69F
LaGuardia APRT CLOUDY    46  41  82 NE15G23   29.70R
Kennedy INTL   LGT RAIN  49  49 100 NE7       29.70R FOG
Breezy Point     N/A     45 N/A N/A NE8         N/A
Newark/Liberty CLOUDY    49  43  80 NE10      29.69R
Teterboro      CLOUDY    50  44  80 E8        29.68S FOG
$$

NYZ177-179-078>081-222100-
LONG ISLAND NEW YORK

CITY           SKY/WX    TMP DP  RH WIND       PRES   REMARKS
Jones Beach      N/A     45 N/A N/A E7          N/A
Matinecock PT    N/A     41 N/A N/A E13         N/A
Farmingdale    CLOUDY    49  43  80 N7        29.70R
MacArthur/ISP  CLOUDY    53  46  77 NE9       29.70R
Shirley        CLOUDY    51  45  79 VRB6      29.71R
Westhampton    CLOUDY    49  42  77 VRB6      29.73R
Southampton    NOT AVBL
Bridgehampton  NOT AVBL
East Hampton     N/A     49  41  75 E14G22    29.73R
Montauk          N/A     47  42  83 NE12      29.74R
$$

NYZ052-065-067-222100-
HUDSON VALLEY

CITY           SKY/WX    TMP DP  RH WIND       PRES   REMARKS
White Plains   PTSUNNY   51  44  77 MISG      29.69R
Newburgh       CLOUDY    48  45  87 CALM      29.71F
Montgomery     CLOUDY    49  45  86 CALM      29.68S FOG
Poughkeepsie   CLOUDY    49  44  83 CALM      29.70F
Albany         CLOUDY    43  38  82 NE6       29.77R
$$

NJZ001-105-106-008-010-013-015-019>022-104-222100-
NEW JERSEY

CITY           SKY/WX    TMP DP  RH WIND       PRES   REMARKS
Newark/Liberty CLOUDY    49  43  80 NE10      29.69R
Teterboro      CLOUDY    50  44  80 E8        29.68S FOG
Caldwell       CLOUDY    49  45  86 E7        29.69R FOG
Somerville     CLOUDY    49  46  90 MISG      29.67R FOG
Linden         CLOUDY    47  42  83 CALM      29.69F
Sussex         CLOUDY    47  47 100 NE6       29.69R FOG
Andover          N/A     45  44  97 CALM      29.68R
Trenton        CLOUDY    49  48  97 NE7       29.67S FOG
Millville      CLOUDY    49  49 100 NE8       29.63S
Atlantic City  CLOUDY    49  46  90 NE10      29.62F
Wrightstown    LGT RAIN  48  48  99 NE8       29.64S FOG
Toms River     LGT RAIN  46  46 100 NE10      29.67S FOG
Belmar         LGT RAIN  45  45 100 NE7       29.69R FOG
$$

PAZ047>061-062-071-222100-
EASTERN PENNSYLVANIA

CITY           SKY/WX    TMP DP  RH WIND       PRES   REMARKS
Philadelphia   LGT RAIN  49  48  97 NE7       29.66R FOG
Allentown      CLOUDY    50  46  86 NE6       29.67R FOG
Scranton       PTSUNNY   56  49  77 NE6       29.65R
$$

CTZ002-004>006-009-010-012-RIZ004-006-007-MAZ004-011-015-222100-
SOUTHERN NEW ENGLAND
 IN CT

CITY           SKY/WX    TMP DP  RH WIND       PRES   REMARKS
Bradley INTL   PTSUNNY   49  41  74 N15       29.76F
Hartford       PTSUNNY   51  42  71 N12       29.74S
Danbury        CLOUDY    53  45  74 E10       29.71S
Wtrbury/Oxford CLOUDY    52  41  66 E12       29.73F
Bridgeport     CLOUDY    48  41  76 E12       29.73R
Meriden        CLOUDY    54  42  64 N8        29.73S
New Haven      CLOUDY    50  43  77 SE6       29.73R
Chester        CLOUDY    55  43  62 NE10      29.72R
Groton         SUNNY     56  42  59 NE14      29.73R
Wilimantic     CLOUDY    53  41  63 NE15      29.75S

 IN RI

CITY           SKY/WX    TMP DP  RH WIND       PRES   REMARKS
Providence     PTSUNNY   49  40  71 NE16      29.79R
Block Island   NOT AVBL
Westerly       SUNNY     55  40  56 NE13      29.75R
 IN MA

CITY           SKY/WX    TMP DP  RH WIND       PRES   REMARKS
Boston         LGT RAIN  42  42 100 NE15      29.85R FOG
Worcester      FOG       39  37  92 NE10      29.79R VSB 1/4 WCI  32
Westfield      CLOUDY    45  41  86 N10       29.78R
Provincetown   CLOUDY    45  42  89 E14       29.83R
Nantucket      CLOUDY    49  41  74 NE15      29.76S
$$

ANZ330-335-338-340-345-350-353-355-222100-
COASTAL MARINE OBSERVATIONS


STATION/POSITION TIME  SKY/WX   TEMP    WIND        PRES    VSBY  WAVE
                                AIR SEA DIR/SP/G                  HT/PER
                 (UTC)          (F)     (DEG/KT/KT) (MB)    (MI)  (FT/S)
NY HARB ENTRANCE 1850            44 43   40/ 14/ 16 1004.6          3/14
20 S FIRE ISLAND 1950            45 45   50/ 17/ 19 1004.1          4/13
GREAT SOUTH BAY  NOT AVBL
23 SSW MONTAUK P 1850            46 47   60/ 16/ 17 1005.8          3/13
15 E BARNEGAT LI 1930               47                N/A           5/12
HUDSON CANYON    1850            54 52              1002.3          5/11
KINGS POINT      1936            45 40              1005.6
EXECUTION ROCKS  1945            41      70/  8/ 12   N/A
CENTRAL LI SOUND 1915            42     100/ 10/ 10   N/A           1
EASTERN LI SOUND NOT AVBL
ROBBINS REEF     1936            45      50/ 15/ 16 1005.4
$$


>>>>>>>>>>>>>>>>>>>>>>>>>>>> KEY <<<<<<<<<<<<<<<<<<<<<<<<<<<
>                                                          <
>     SKY/WX - Sky Condition/Present Weather               <
>     TMP    - Temperature in Fahrenheit                   <
>     DP     - Dew Point in Fahrenheit                     <
>     RH     - Relative Humidity in Percent                <
>     WIND   - Direction (from) and Speed in MPH           <
>     PRES   - Mean Sea Level Pressure (inches of Hg)      <
>     WCI    - Wind Chill Index                            <
>     VSB    - VISIBILITY IN MILES                         <
>     HX     - HEAT INDEX                                  <
>     TC     - TEMPERATURE IN CELSIUS                      <
>     VRB    - VARIABLE WIND DIRECTION                     <
>                                                          <
>>>>>>>>>>>>>>>>>>>>>>>>>>>> KEY <<<<<<<<<<<<<<<<<<<<<<<<<<<




USA.gov is the U.S. government's official web portal to all federal, state and local government web resources and services.